Theta_e
313 314 316 315 316 314 318 321 320 320 321 323 323 323 324 327 330 332 334 334 334 334 333 331 330 329 330 327 324 321 319 315 308 304 304 304 303 303 303 303 303 303 303 303 303 303 303 303 303
310 312 314 315 313 317 315 315 319 320 322 321 322 322 321 330 330 335 334 333 334 334 332 330 329 328 328 326 323 320 318 310 305 304 304 303 303 303 303 303 304 304 304 304 303 303 303 303 303
309 312 313 311 312 314 316 319 316 320 322 321 321 321 325 329 331 333 332 333 333 334 331 327 329 328 328 326 322 319 313 306 304 304 304 304 304 304 304 304 304 304 304 304 304 304 304 304 303
313 313 312 309 312 313 316 314 318 320 321 320 320 322 327 330 333 332 331 332 332 332 325 326 327 324 327 325 321 316 309 305 304 304 304 304 305 305 305 305 304 304 305 305 305 305 305 305 305
312 312 309 310 310 312 314 315 316 317 318 319 319 321 326 329 329 329 329 331 330 328 317 322 320 325 325 322 319 312 306 305 304 304 305 305 305 305 305 304 305 305 304 304 304 304 304 304 305
312 311 308 309 309 310 313 316 316 315 318 319 318 325 328 328 325 326 331 331 329 325 314 318 320 325 323 320 315 309 305 305 305 305 306 306 305 305 304 305 304 303 304 305 305 305 305 305 305
311 308 308 310 310 312 313 315 314 315 315 318 320 322 328 330 330 328 331 329 328 324 317 317 321 323 321 318 313 307 306 305 306 306 306 305 305 304 305 304 304 305 305 305 306 305 305 305 305
312 307 312 310 310 313 314 315 317 317 317 319 318 320 326 329 332 330 331 329 328 325 319 315 321 322 319 316 312 307 306 306 307 306 306 305 303 306 304 305 305 305 306 307 308 311 312 310 309
312 307 308 311 311 312 314 314 316 317 317 317 318 321 323 325 328 329 330 330 328 324 319 317 319 320 318 315 311 308 306 307 307 306 306 304 305 304 304 305 306 307 308 309 309 309 309 309 309
308 304 308 310 309 309 310 312 312 314 314 316 319 320 325 326 325 325 327 328 325 322 320 319 319 317 315 314 311 308 307 307 308 307 305 303 305 304 305 306 307 309 310 310 310 311 309 309 308
310 307 309 310 311 310 310 310 311 313 312 314 316 318 320 324 322 323 325 325 322 322 322 323 320 318 316 314 312 309 308 308 308 307 305 304 304 304 305 307 309 310 309 310 310 311 311 310 310
310 310 310 311 311 310 309 310 309 311 313 313 312 314 318 318 318 318 320 320 321 321 322 322 320 318 317 315 312 310 309 308 308 307 304 305 304 305 306 308 310 310 310 310 310 311 310 310 310
310 310 311 311 310 310 310 309 308 309 310 312 311 314 316 318 317 316 318 319 320 321 321 320 318 317 316 315 312 311 310 308 309 307 303 306 304 305 307 310 310 309 310 310 310 310 310 310 310
310 309 309 310 310 310 309 308 310 310 310 311 311 311 315 315 314 316 317 319 321 322 322 321 318 317 316 315 313 311 310 309 309 306 303 305 304 305 310 310 309 309 310 310 310 311 311 311 312
309 307 306 307 309 308 310 307 308 310 310 310 311 311 311 314 313 314 315 319 321 324 323 322 318 317 316 315 313 312 311 309 309 306 304 304 304 306 310 310 309 309 309 310 310 311 311 313 311
307 307 307 307 306 309 308 306 307 310 310 310 311 310 311 311 312 313 316 319 323 326 325 323 319 317 316 315 314 313 312 310 309 306 304 304 304 308 311 310 310 309 311 311 311 311 312 312 312
306 303 306 307 307 307 307 306 308 309 309 309 310 310 311 311 311 311 312 316 321 324 325 323 320 317 316 316 315 314 312 310 309 305 305 304 304 309 311 310 310 311 311 311 312 312 312 312 312
305 306 306 305 307 307 306 305 305 308 307 309 310 311 311 311 311 310 310 312 319 323 325 323 321 318 317 316 315 314 313 311 309 305 305 304 305 309 311 310 310 310 312 312 311 312 312 313 312
306 306 305 306 306 306 304 304 305 306 308 307 309 309 311 312 311 310 310 311 317 322 324 322 320 319 317 316 315 315 313 311 309 304 305 304 305 309 311 311 310 309 312 312 310 311 312 313 312
306 307 305 304 305 306 304 304 304 304 305 307 308 310 310 311 311 311 312 314 317 321 323 320 320 319 317 316 315 315 313 311 308 304 305 304 305 309 311 311 310 310 312 310 312 312 313 313 313
307 306 306 305 306 305 304 302 304 304 305 306 307 309 310 310 311 311 312 315 318 321 322 320 319 318 317 316 316 315 313 311 308 303 306 304 304 309 311 311 311 310 311 310 312 312 313 313 314
309 307 307 307 306 304 304 304 303 305 305 305 305 307 309 310 310 311 311 314 318 321 321 320 319 317 318 317 315 315 313 311 307 303 306 304 304 308 311 311 311 310 310 310 311 313 313 314 314
309 307 308 307 306 306 305 303 303 304 305 305 305 308 309 309 310 311 311 312 316 320 320 319 318 317 317 316 315 315 313 311 306 302 306 304 305 308 310 311 310 310 310 310 311 313 313 315 315
306 307 307 308 306 304 305 306 305 306 307 306 306 308 310 310 309 310 311 312 315 319 319 318 317 316 316 316 316 315 313 310 306 302 307 304 305 307 310 311 311 310 310 311 311 312 314 314 315
307 306 305 306 305 307 307 304 305 306 307 307 306 308 311 310 309 310 310 310 310 309 310 315 316 316 315 316 316 315 313 310 305 302 307 305 305 307 309 310 311 310 310 311 311 311 313 314 314
306 307 308 308 310 308 304 307 308 306 307 309 310 310 311 310 309 309 309 309 308 308 310 314 316 316 315 316 316 315 312 309 304 303 306 305 305 306 309 310 311 310 310 311 311 311 312 313 314
305 306 308 306 299 306 307 306 306 306 306 306 307 309 310 310 310 309 309 309 309 309 311 314 316 315 315 316 316 315 312 308 304 303 306 306 305 305 308 310 311 310 310 310 311 311 311 313 314
305 305 307 304 305 309 308 309 310 311 308 306 305 306 309 310 310 310 310 310 310 311 313 314 315 314 315 315 316 314 311 307 304 303 306 306 305 305 307 310 311 311 310 310 310 311 311 312 314
306 306 306 306 308 309 308 311 308 311 310 307 305 308 308 310 310 311 311 311 311 313 314 314 314 314 315 315 315 313 310 306 303 303 306 306 306 305 306 309 310 311 310 310 310 311 311 311 313
307 307 308 308 305 307 310 312 310 310 309 308 309 310 309 309 311 311 312 312 312 313 313 313 314 314 315 315 315 312 308 306 304 303 306 307 306 306 305 308 309 310 311 311 312 311 311 312 313
Wind_Speed
5 5 2 4 3 4 4 6 5 4 4 6 7 7 9 5 3 3 14 7 10 11 10 9 6 6 6 4 2 1 4 7 8 7 7 7 7 7 7 7 7 7 8 9 10 11 12 12 13
3 2 1 2 3 2 5 5 7 4 9 9 8 4 4 2 5 12 16 8 10 11 8 12 9 7 5 4 2 2 5 7 7 8 8 8 8 9 9 9 9 9 9 10 11 12 13 13 13
2 1 1 3 3 4 3 2 7 6 9 5 4 6 5 4 11 14 17 16 14 10 8 12 10 9 6 5 2 2 6 7 7 8 8 9 9 10 10 11 11 12 12 12 12 13 13 14 14
1 3 3 3 6 7 2 5 7 6 6 4 8 7 8 7 10 9 20 16 15 11 9 11 10 9 8 5 2 3 5 6 7 7 8 9 9 10 11 12 13 13 13 13 13 14 14 14 13
1 2 1 1 7 6 3 9 6 2 6 7 5 6 7 6 8 12 17 16 13 10 9 11 8 9 7 4 1 3 4 5 6 7 8 9 10 11 12 12 12 13 13 13 13 14 15 15 15
1 0 3 4 6 8 3 9 7 2 7 9 4 8 5 9 10 17 16 15 11 8 7 9 9 9 7 4 1 2 3 4 6 7 8 9 10 11 11 11 11 12 13 13 14 15 14 14 14
3 3 4 4 5 6 1 5 7 2 4 4 7 4 8 14 12 17 16 13 10 6 6 9 10 9 6 4 2 2 3 4 5 7 8 10 11 10 11 11 12 13 13 14 14 13 13 12 11
2 3 3 4 4 3 2 2 4 6 1 6 6 6 6 21 18 18 16 14 11 7 6 8 9 8 6 4 2 1 2 3 5 7 9 11 12 13 12 12 12 13 14 14 15 13 14 13 12
1 3 3 3 4 2 4 4 4 2 2 2 2 5 5 18 20 22 21 18 15 11 7 8 9 9 7 5 3 2 2 3 5 6 9 11 11 11 11 11 12 13 15 16 17 15 15 14 12
3 3 6 1 2 2 5 6 6 3 3 3 4 4 10 17 21 23 23 21 17 12 10 8 8 9 7 5 3 2 1 3 5 7 9 11 10 10 11 12 12 14 16 17 18 18 22 19 17
4 5 1 4 3 5 4 7 8 0 3 5 8 15 15 17 21 22 22 20 17 14 13 12 10 8 6 5 3 3 1 3 5 7 9 10 9 9 10 11 11 13 14 16 18 17 20 22 22
3 7 5 7 5 5 3 9 10 7 9 8 12 8 18 19 21 22 22 22 20 19 17 15 14 12 11 7 5 4 1 3 5 7 9 9 9 9 10 10 12 13 13 14 16 17 16 18 19
4 4 11 8 12 9 9 8 8 21 21 17 12 10 15 19 17 18 16 16 18 21 20 18 16 14 12 8 7 5 3 3 5 6 8 8 8 8 10 11 12 12 14 13 16 15 15 15 16
1 2 6 9 11 8 6 4 3 12 10 14 19 20 18 20 18 17 18 19 21 21 21 19 17 15 12 10 9 7 4 3 4 6 7 7 7 8 10 11 12 11 15 13 15 17 17 19 21
2 5 6 11 18 6 5 5 9 25 23 25 14 13 23 22 20 22 20 20 20 21 21 21 18 16 14 12 11 8 5 4 4 4 5 5 6 7 9 10 11 11 13 12 12 14 15 21 24
1 2 3 5 8 5 7 8 11 12 11 14 20 22 16 19 24 23 22 21 21 23 24 22 20 18 16 13 11 8 7 4 3 3 4 4 5 6 8 9 10 11 12 11 13 16 19 19 27
3 4 5 6 5 5 5 6 6 2 4 6 6 10 23 24 22 22 25 25 26 27 26 25 22 20 17 16 12 10 8 5 3 2 2 3 4 5 8 10 9 10 9 8 13 13 15 17 24
5 4 5 6 4 4 5 12 10 27 17 25 21 13 14 22 25 22 23 28 28 28 27 25 24 22 20 18 14 12 10 7 4 1 1 2 3 4 7 8 8 7 10 11 10 9 13 15 19
3 1 2 4 3 4 7 9 11 19 23 20 25 19 20 18 16 20 21 28 30 30 29 28 26 26 23 20 17 14 11 8 5 2 1 2 3 4 5 7 7 7 11 10 10 12 16 17 14
7 4 5 6 3 3 5 10 13 12 14 28 30 31 26 24 22 23 22 29 32 33 32 29 27 27 23 19 16 13 12 10 6 4 3 3 3 3 4 5 6 5 9 9 10 12 15 16 15
7 8 4 6 4 4 5 7 7 7 15 27 30 35 33 32 29 30 30 32 33 34 33 31 28 26 23 21 20 17 15 12 9 6 5 4 5 4 3 4 4 5 7 8 9 12 12 14 17
8 8 8 5 1 4 2 5 7 9 8 6 25 33 37 33 31 35 35 35 35 35 33 30 27 25 25 24 21 17 13 11 8 7 7 6 6 5 3 3 5 4 5 7 8 11 12 10 15
5 2 8 4 3 2 2 3 7 4 6 11 13 25 29 32 34 37 40 34 34 34 34 32 28 25 27 25 21 18 16 12 10 8 9 8 7 7 4 2 4 4 4 6 7 9 13 10 10
7 6 6 5 3 2 9 8 4 6 10 6 6 20 23 24 29 31 40 36 35 35 35 33 30 27 26 26 23 20 17 13 11 10 10 9 9 9 6 3 3 6 5 6 7 9 10 11 8
5 7 2 2 1 7 3 4 6 7 8 7 7 15 13 19 30 29 36 37 36 37 37 36 32 30 28 28 25 22 18 14 11 10 10 10 10 10 7 4 3 6 6 6 6 8 10 10 7
7 8 6 8 4 3 3 8 6 15 14 9 12 16 15 18 23 28 32 36 36 36 37 37 34 32 30 30 26 23 19 15 12 11 11 11 10 10 9 6 4 5 7 7 4 7 10 8 8
6 9 6 5 2 2 5 7 8 10 10 7 6 7 15 18 20 24 26 29 33 34 36 36 35 32 32 31 28 24 21 18 15 13 13 11 11 11 10 8 6 5 6 6 4 7 10 10 9
10 11 4 2 4 4 5 6 8 3 11 6 7 15 20 22 21 22 25 28 30 32 33 33 32 31 32 32 29 25 21 18 16 14 13 12 12 12 12 10 7 6 7 7 5 6 10 12 11
6 8 4 6 5 5 1 6 8 16 11 9 11 22 23 26 26 24 24 26 28 30 32 32 32 33 34 33 29 26 23 20 17 14 14 13 12 12 13 11 8 5 7 6 4 7 11 15 13
15 9 15 8 6 4 3 9 3 9 9 7 5 11 17 21 23 22 23 25 27 30 31 32 33 35 35 32 30 27 24 21 18 17 16 15 13 13 13 13 10 7 6 7 7 9 11 15 16
Wind_Direction
285 281 286 321 53 67 262 263 192 95 51 86 70 81 121 73 73 164 139 187 185 183 174 157 166 171 188 183 203 306 339 341 346 356 359 2 3 360 353 349 339 327 320 315 308 304 300 294 288
278 253 266 264 95 59 272 229 73 98 123 98 84 66 91 100 89 141 154 180 190 189 184 162 176 182 175 194 220 326 339 343 354 359 2 3 4 2 356 351 345 337 330 323 317 312 307 302 295
296 283 290 120 154 194 234 69 143 119 110 104 106 84 89 91 125 142 164 183 192 200 209 165 169 185 183 201 225 322 338 349 357 1 3 5 4 359 356 350 346 340 335 329 323 314 311 307 303
252 167 235 100 243 269 241 134 139 119 82 100 108 81 93 121 155 152 170 188 198 204 210 164 169 171 184 197 226 328 344 356 1 3 3 4 0 356 353 349 345 338 338 333 329 325 323 320 313
342 254 45 234 267 250 236 124 105 95 158 150 123 154 100 136 176 158 174 193 208 215 207 168 175 169 184 196 244 329 352 0 5 5 1 0 356 354 352 349 346 345 346 341 337 331 328 325 318
314 282 63 230 256 297 243 135 126 127 134 136 120 114 132 169 175 157 177 196 215 227 196 172 170 173 189 202 250 330 3 4 8 4 359 356 356 356 354 356 357 356 352 342 335 333 326 321 317
132 92 224 252 256 294 33 118 126 210 165 188 139 85 144 166 172 161 187 204 218 220 221 179 175 179 192 210 250 330 6 6 7 2 356 357 356 359 2 7 7 360 350 348 341 340 338 336 337
280 104 271 267 253 264 322 43 77 64 88 125 164 161 179 177 178 166 188 205 222 230 239 190 175 189 198 213 238 292 347 5 6 3 355 356 357 8 11 11 4 2 357 357 356 355 350 343 346
316 57 242 258 351 28 17 57 25 14 110 89 137 161 186 176 186 177 188 203 215 218 211 181 185 196 201 208 222 250 305 3 8 1 357 357 6 14 16 9 5 9 10 11 11 5 353 351 347
122 141 228 321 31 32 3 46 356 338 344 178 138 157 162 175 191 193 197 202 214 212 209 198 201 200 193 199 211 235 303 352 4 2 357 360 11 20 18 10 12 15 17 19 21 16 18 13 6
195 203 288 347 40 19 352 360 340 192 287 236 233 209 199 197 197 202 206 210 215 210 209 214 216 221 230 214 226 235 293 348 3 357 356 6 16 23 19 18 17 13 26 29 30 24 14 8 10
218 246 281 308 351 348 342 330 330 274 238 229 304 254 219 207 208 211 210 210 208 208 209 212 213 215 224 227 235 244 264 337 346 356 3 9 20 22 20 20 14 12 37 33 29 27 23 17 13
221 240 280 279 310 292 290 270 259 271 257 258 263 251 226 217 223 224 223 223 213 212 212 214 213 214 221 220 232 236 255 310 334 354 6 11 23 23 23 20 14 23 47 32 32 27 20 18 12
153 341 293 288 278 270 225 251 220 269 268 254 243 242 232 225 233 230 227 226 216 216 216 214 213 213 219 220 230 234 240 277 327 348 5 13 28 26 31 23 28 33 43 38 40 31 35 30 28
27 342 314 249 246 236 205 283 232 270 262 252 245 247 236 234 238 240 243 229 224 220 220 217 214 213 215 220 224 230 231 256 304 345 5 21 32 32 34 25 35 44 57 48 55 35 36 41 31
101 138 320 264 171 213 142 267 277 305 245 264 257 240 237 233 235 237 236 231 226 224 222 218 214 213 212 218 224 224 228 246 288 344 9 32 43 39 32 33 44 47 42 30 43 36 46 43 42
245 220 211 303 164 141 168 261 267 96 331 305 275 248 234 239 237 233 224 226 224 224 224 218 213 211 211 215 220 217 223 233 263 334 12 48 57 51 35 42 46 52 53 33 41 33 31 49 52
198 211 246 229 194 153 178 256 271 276 288 280 273 258 252 238 233 227 221 220 222 224 224 220 213 209 210 214 214 213 219 222 240 289 351 80 84 68 46 46 53 56 62 42 52 57 43 52 60
115 86 323 286 224 163 220 259 268 272 278 255 253 250 234 227 235 221 225 213 213 218 217 215 210 208 211 212 210 211 219 219 226 231 226 108 112 88 59 47 58 54 65 38 64 65 65 69 76
259 276 274 287 193 219 254 262 263 252 244 249 238 244 237 228 220 216 214 209 213 216 214 213 212 213 211 211 214 215 216 214 211 213 199 149 136 116 67 42 57 65 73 62 63 72 62 69 76
217 220 224 224 331 287 333 286 273 275 245 252 247 245 244 231 221 209 207 209 211 213 214 214 212 213 209 206 208 208 211 210 206 202 190 168 153 140 87 35 63 77 80 77 71 83 70 78 74
226 195 212 224 101 239 71 286 300 274 269 231 241 233 235 234 229 214 207 208 210 212 214 216 216 214 206 207 209 215 221 215 205 198 186 174 160 153 115 54 76 91 89 86 91 95 90 80 89
207 169 192 182 175 351 241 261 267 262 255 241 239 231 231 231 223 217 209 212 211 212 213 215 216 213 208 208 205 207 208 208 209 199 185 174 167 158 142 94 66 111 105 98 100 102 115 91 98
140 87 53 53 86 298 200 192 235 220 229 249 246 240 238 230 218 222 210 210 206 209 214 216 213 213 209 205 202 205 209 209 207 197 185 174 171 165 159 136 86 128 133 112 116 117 123 128 111
134 116 27 1 339 233 167 184 246 252 251 217 246 240 232 216 203 206 206 202 204 208 212 213 212 212 207 203 202 205 205 207 206 201 188 180 175 169 167 151 112 132 154 127 128 138 132 132 131
163 164 162 198 208 247 81 233 257 230 250 256 245 242 206 194 197 207 205 203 205 209 212 214 212 211 205 200 200 203 204 205 203 198 190 181 176 172 171 159 145 142 157 148 141 147 146 140 128
202 209 164 105 25 58 221 280 296 253 265 235 189 170 181 187 196 202 207 208 207 211 213 215 213 211 203 199 199 201 202 203 202 196 190 184 178 175 175 166 152 154 149 161 161 156 161 153 136
177 142 165 7 156 243 267 251 227 200 237 234 196 205 202 200 203 205 205 207 210 212 212 212 214 210 201 198 199 201 202 203 202 197 193 186 180 179 178 177 163 157 160 166 166 168 164 161 150
145 182 180 139 177 184 242 257 214 218 215 217 225 224 213 207 204 205 205 207 207 207 208 208 206 200 197 197 197 198 199 202 201 197 194 190 186 184 182 182 178 168 168 166 167 169 167 166 161
207 188 179 182 215 221 175 242 243 223 219 209 222 199 207 214 205 205 205 203 204 206 204 203 200 196 197 196 197 198 199 201 199 198 194 189 188 186 184 184 184 179 172 160 151 147 165 166 170